CZ-6A DEB, 54294

Orbit data source: Space-Track

CZ-6A DEB, 54294 is space debris in SSO originally from a launch on Fri, 11 Nov 2022 UTC launched from the Taiyaun Space Center, China (TSC). Debris objects in space refer to the collection of defunct objects orbiting the Earth. Examples of debris include non-operational satellites, rocket bodies, and fragments generated from explosions, collisions, or faulty payload assembly.

Loading next visibility...
Identifier
54294, 2022-151AM
Orbit
SSO
Country
Flag of CNCN / PRC
Related business
Manufacturer
SAST
Mission
Spacecraft
Bus & Motor
Unknown
Mass
Unknown
Launch date (UTC)
2022-11-11 (4 years ago)
Launch vehicle
Unknown
Launch site
Taiyaun Space Center, China (TSC)
Object type
Payload
Rocket body
Debris
Shape & HBR
Unknown shape, 0.1 m
Radar Cross Section
Medium (>0.1 m² and <1 m²)

Expand to show TLE details & history
Last TLE update: 2 days ago

TLE from 2 days ago
0 CZ-6A DEB
1 54294U 22151AM  26171.22726559  .00005895  00000-0  84581-3 0  9996
2 54294  98.7546 278.0386 0113727 207.0703 152.4543 14.72555241191482
Epoch: 2026-06-20T05:27Z
TLE epoch observation values (Epoch: 2026-06-20T05:27:15.746Z)
Latitude
-0.00011°
Longitude
-72.22191°
Altitude
727.011 km
Speed
7.454 km/s
True Right ascension
18h 32m 09s
True Declination
0° 00' 00"
Sunlit
Object was in full shadow at epoch
Visualization orbit readout
Latitude
Unknown
Longitude
Unknown
Altitude
Unknown
Speed
Unknown
Apparent Right ascension
Unknown
Apparent Declination
Unknown
Sunlit
N/A
Visualization observer readout
Local Sidereal Time
21:40:23
Azimuth
Unknown
Elevation
Unknown
Doppler factor
Unknown
Orbital elements
Apogee altitude
729.942 km
Perigee altitude
570.084 km
Semi-major axis
7,028.15 km
Eccentricity
0.01137
Inclination
98.7546°
RAAN
278.0386°
Arg. of periapsis
207.0703°
True anomaly
153.04946°
Mean anomaly
152.4543°
Eccentric anomaly
152.75263°
Mean motion
3.68368 °/min
Orbital period
97.73 mins
BSTAR
0.00084581
Loading maneuver chart data...
Computing Atmospheric mass density...
Loading historical data...
Loading historical data...
Loading historical data...
Loading historical data...
Loading historical data...
Loading historical data...
Loading historical data...

Documentation

Showing up to 5 results
|